| time (UTC) | temp C | wind direction | speed KPH | gust KPH | rain 1hr cm | rain 24hr cm | rain mn cm | humidity % | barometer mb |
| 20260506103605 | 11 | 53 | 0.0 | 0.0 | 0.00 | 0.00 | 0.00 | 91 | 1016.3 |
| 20260506103102 | 11 | 89 | 0.0 | 0.0 | 0.00 | 0.00 | 0.00 | 91 | 1016.3 |
| 20260506102600 | 11 | 92 | 0.0 | 0.0 | 0.00 | 0.00 | 0.00 | 91 | 1016.4 |
| 20260506102057 | 11 | 105 | 0.0 | 0.0 | 0.00 | 0.00 | 0.00 | 91 | 1016.5 |
| 20260506101554 | 11 | 109 | 0.0 | 0.0 | 0.00 | 0.00 | 0.00 | 91 | 1016.3 |
| 20260506101051 | 11 | 63 | 0.0 | 0.0 | 0.00 | 0.00 | 0.00 | 91 | 1016.5 |
| 20260506100549 | 11 | 64 | 0.0 | 0.0 | 0.00 | 0.00 | 0.00 | 91 | 1016.5 |
| 20260506100047 | 11 | 77 | 0.0 | 0.0 | 0.00 | 0.00 | 0.00 | 91 | 1016.3 |
| 20260506095545 | 11 | 93 | 0.0 | 0.0 | 0.00 | 0.00 | 0.00 | 91 | 1016.7 |
| 20260506095041 | 11 | 98 | 0.0 | 0.0 | 0.00 | 0.00 | 0.00 | 91 | 1016.6 |
| 20260506094539 | 11 | 121 | 0.0 | 0.0 | 0.00 | 0.00 | 0.00 | 91 | 1016.6 |
| 20260506094037 | 11 | 83 | 0.0 | 0.0 | 0.00 | 0.00 | 0.00 | 91 | 1016.8 |
| 20260506093535 | 11 | 53 | 0.0 | 0.0 | 0.00 | 0.00 | 0.00 | 91 | 1016.8 |
| 20260506093032 | 11 | 92 | 0.0 | 0.0 | 0.00 | 0.00 | 0.00 | 91 | 1016.7 |
| 20260506092530 | 11 | 96 | 0.0 | 0.0 | 0.00 | 0.00 | 0.00 | 91 | 1016.6 |
| 20260506092026 | 11 | 105 | 0.0 | 0.0 | 0.00 | 0.00 | 0.00 | 91 | 1016.8 |
| 20260506091525 | 11 | 68 | 0.0 | 0.0 | 0.00 | 0.00 | 0.00 | 91 | 1016.9 |
| 20260506091022 | 11 | 69 | 0.0 | 0.0 | 0.00 | 0.00 | 0.00 | 91 | 1017.0 |
| 20260506090520 | 11 | 88 | 0.0 | 0.0 | 0.00 | 0.00 | 0.00 | 91 | 1017.0 |
| 20260506090015 | 11 | 66 | 0.0 | 0.0 | 0.00 | 0.00 | 0.00 | 91 | 1016.9 |
| 20260506085513 | 11 | 106 | 0.0 | 0.0 | 0.00 | 0.00 | 0.00 | 90 | 1016.9 |
| 20260506085009 | 11 | 100 | 0.0 | 0.0 | 0.00 | 0.00 | 0.00 | 90 | 1017.0 |
| 20260506084506 | 11 | 111 | 0.0 | 0.0 | 0.00 | 0.00 | 0.00 | 90 | 1017.0 |
| 20260506084002 | 11 | 50 | 0.0 | 0.0 | 0.00 | 0.00 | 0.00 | 90 | 1016.9 |
| 20260506083459 | 11 | 75 | 0.0 | 0.0 | 0.00 | 0.00 | 0.00 | 91 | 1017.1 |
| 20260506082956 | 11 | 92 | 0.0 | 0.0 | 0.00 | 0.00 | 0.00 | 91 | 1017.1 |
| 20260506082454 | 11 | 110 | 0.0 | 0.0 | 0.00 | 0.00 | 0.00 | 91 | 1017.3 |
| 20260506081949 | 11 | 34 | 0.0 | 0.0 | 0.00 | 0.00 | 0.00 | 91 | 1017.1 |
| 20260506081448 | 11 | 88 | 0.0 | 0.0 | 0.00 | 0.00 | 0.00 | 91 | 1017.1 |
| 20260506080945 | 12 | 56 | 0.0 | 0.0 | 0.00 | 0.00 | 0.00 | 91 | 1017.0 |
| 20260506080442 | 12 | 109 | 0.0 | 0.0 | 0.00 | 0.00 | 0.00 | 91 | 1017.0 |
| 20260506073426 | 12 | 57 | 0.0 | 0.0 | 0.00 | 0.00 | 0.00 | 91 | 1017.1 |
| 20260506072923 | 12 | 83 | 0.0 | 0.0 | 0.00 | 0.00 | 0.00 | 91 | 1017.0 |
| 20260506072420 | 12 | 88 | 0.0 | 0.0 | 0.00 | 0.00 | 0.00 | 91 | 1016.8 |
| 20260506071917 | 12 | 106 | 0.0 | 0.0 | 0.00 | 0.00 | 0.00 | 90 | 1017.0 |
| 20260506071416 | 12 | 112 | 0.0 | 0.0 | 0.00 | 0.00 | 0.00 | 90 | 1016.7 |
| 20260506070912 | 12 | 111 | 0.0 | 0.0 | 0.00 | 0.00 | 0.00 | 90 | 1016.8 |
| 20260506070409 | 12 | 122 | 0.0 | 0.0 | 0.00 | 0.00 | 0.00 | 90 | 1016.7 |
| 20260506062346 | 13 | 64 | 0.0 | 0.0 | 0.00 | 0.00 | 0.00 | 89 | 1016.2 |
| 20260506061842 | 13 | 105 | 0.0 | 0.0 | 0.00 | 0.00 | 0.00 | 89 | 1016.0 |
| 20260506061339 | 13 | 137 | 0.0 | 0.0 | 0.00 | 0.00 | 0.00 | 89 | 1016.1 |
| 20260506060837 | 13 | 136 | 0.0 | 0.0 | 0.00 | 0.00 | 0.00 | 89 | 1016.0 |
| 20260506060335 | 13 | 122 | 0.0 | 0.0 | 0.00 | 0.00 | 0.00 | 88 | 1016.0 |
| 20260506051306 | 13 | 145 | 0.0 | 0.0 | 0.00 | 0.00 | 0.00 | 88 | 1015.8 |
| 20260506050805 | 13 | 144 | 0.0 | 0.0 | 0.00 | 0.00 | 0.00 | 88 | 1015.7 |
| 20260506050302 | 13 | 167 | 0.0 | 0.0 | 0.00 | 0.00 | 0.00 | 88 | 1015.9 |
| 20260506044752 | 13 | 169 | 0.0 | 0.0 | 0.00 | 0.00 | 0.00 | 88 | 1015.5 |
| 20260506044250 | 13 | 176 | 0.0 | 0.0 | 0.00 | 0.00 | 0.00 | 88 | 1015.5 |
| 20260506043747 | 13 | 165 | 0.0 | 0.0 | 0.00 | 0.00 | 0.00 | 88 | 1015.7 |
| 20260506043244 | 13 | 146 | 0.0 | 0.0 | 0.00 | 0.00 | 0.00 | 88 | 1015.5 |
| 20260506042743 | 13 | 149 | 0.0 | 0.0 | 0.00 | 0.00 | 0.00 | 88 | 1015.4 |
| 20260506042241 | 13 | 147 | 0.0 | 0.0 | 0.00 | 0.00 | 0.00 | 88 | 1015.3 |
| 20260506041739 | 13 | 153 | 0.0 | 0.0 | 0.00 | 0.00 | 0.00 | 88 | 1015.2 |
| 20260506041236 | 13 | 164 | 0.0 | 0.0 | 0.00 | 0.00 | 0.00 | 88 | 1015.4 |
| 20260506040733 | 13 | 168 | 0.0 | 0.0 | 0.00 | 0.00 | 0.00 | 88 | 1015.0 |
| 20260506040230 | 13 | 171 | 0.0 | 0.0 | 0.00 | 0.00 | 0.00 | 88 | 1015.2 |
| 20260506035727 | 14 | 164 | 0.0 | 0.0 | 0.00 | 0.00 | 0.00 | 88 | 1015.2 |
| 20260506035224 | 14 | 170 | 0.0 | 0.0 | 0.00 | 0.00 | 0.00 | 88 | 1014.9 |
| 20260506034720 | 14 | 173 | 0.0 | 0.0 | 0.00 | 0.00 | 0.00 | 87 | 1014.9 |
| 20260506034218 | 14 | 180 | 0.0 | 0.0 | 0.00 | 0.00 | 0.00 | 87 | 1015.0 |
| 20260506033715 | 14 | 154 | 0.0 | 0.0 | 0.00 | 0.00 | 0.00 | 87 | 1014.8 |
| 20260506033212 | 14 | 200 | 0.0 | 0.0 | 0.00 | 0.00 | 0.00 | 87 | 1014.6 |
| 20260506032709 | 14 | 173 | 0.0 | 0.0 | 0.00 | 0.00 | 0.00 | 87 | 1014.8 |
| 20260506032206 | 14 | 202 | 0.0 | 0.0 | 0.00 | 0.00 | 0.00 | 86 | 1014.5 |
| 20260506031702 | 14 | 203 | 0.0 | 0.0 | 0.00 | 0.00 | 0.00 | 86 | 1014.6 |
| 20260506031200 | 14 | 168 | 0.0 | 0.0 | 0.00 | 0.00 | 0.00 | 86 | 1014.4 |
| 20260506030658 | 14 | 180 | 0.0 | 0.0 | 0.00 | 0.00 | 0.00 | 85 | 1014.2 |
| 20260506030155 | 15 | 155 | 0.0 | 1.6 | 0.00 | 0.00 | 0.00 | 85 | 1014.2 |
| 20260506025652 | 15 | 198 | 0.0 | 0.0 | 0.00 | 0.00 | 0.00 | 84 | 1014.0 |
| 20260506025148 | 15 | 163 | 0.0 | 0.0 | 0.00 | 0.00 | 0.00 | 84 | 1014.1 |
| 20260506024646 | 15 | 159 | 0.0 | 0.0 | 0.00 | 0.00 | 0.00 | 83 | 1013.8 |
| 20260506024142 | 15 | 218 | 0.0 | 1.6 | 0.00 | 0.00 | 0.00 | 82 | 1013.9 |
| 20260506023638 | 15 | 193 | 0.0 | 0.0 | 0.00 | 0.00 | 0.00 | 82 | 1013.9 |
| 20260506023135 | 15 | 179 | 0.0 | 0.0 | 0.00 | 0.00 | 0.00 | 80 | 1013.9 |
| 20260506022633 | 16 | 163 | 0.0 | 0.0 | 0.00 | 0.00 | 0.00 | 79 | 1013.8 |
| 20260506022130 | 16 | 175 | 0.0 | 0.0 | 0.00 | 0.00 | 0.00 | 78 | 1013.5 |
| 20260506021628 | 16 | 179 | 0.0 | 0.0 | 0.00 | 0.00 | 0.00 | 77 | 1013.6 |
| 20260506021125 | 16 | 218 | 0.0 | 0.0 | 0.00 | 0.00 | 0.00 | 76 | 1013.6 |
| 20260506020622 | 16 | 187 | 0.0 | 0.0 | 0.00 | 0.00 | 0.00 | 76 | 1013.5 |
| 20260506020119 | 16 | 223 | 0.0 | 0.0 | 0.00 | 0.00 | 0.00 | 76 | 1013.6 |
| 20260506015617 | 16 | 222 | 0.0 | 0.0 | 0.00 | 0.00 | 0.00 | 77 | 1013.5 |
| 20260506015114 | 16 | 172 | 0.0 | 0.0 | 0.00 | 0.00 | 0.00 | 77 | 1013.5 |
| 20260506014611 | 16 | 180 | 0.0 | 0.0 | 0.00 | 0.00 | 0.00 | 76 | 1013.6 |
| 20260506014106 | 16 | 200 | 0.0 | 0.0 | 0.00 | 0.00 | 0.00 | 76 | 1013.3 |
| 20260506013605 | 17 | 226 | 1.6 | 3.2 | 0.00 | 0.00 | 0.00 | 74 | 1013.4 |
| 20260506013101 | 17 | 168 | 0.0 | 0.0 | 0.00 | 0.00 | 0.00 | 73 | 1013.6 |
| 20260506012557 | 17 | 236 | 1.6 | 3.2 | 0.00 | 0.00 | 0.00 | 73 | 1013.6 |
| 20260506012054 | 17 | 222 | 0.0 | 1.6 | 0.00 | 0.00 | 0.00 | 73 | 1013.5 |
| 20260506011552 | 17 | 210 | 8.0 | 12.9 | 0.00 | 0.00 | 0.00 | 73 | 1013.4 |
| 20260506011048 | 17 | 229 | 4.8 | 11.3 | 0.00 | 0.00 | 0.00 | 73 | 1013.6 |
| 20260506010548 | 17 | 239 | 0.0 | 1.6 | 0.00 | 0.00 | 0.00 | 73 | 1013.5 |
| 20260506010044 | 17 | 237 | 0.0 | 0.0 | 0.00 | 0.00 | 0.00 | 73 | 1013.5 |
| 20260506005541 | 17 | 215 | 0.0 | 0.0 | 0.00 | 0.00 | 0.00 | 73 | 1013.6 |
| 20260506005037 | 17 | 233 | 0.0 | 1.6 | 0.00 | 0.00 | 0.00 | 72 | 1013.3 |
| 20260506004535 | 16 | 266 | 4.8 | 11.3 | 0.00 | 0.00 | 0.00 | 73 | 1013.3 |
| 20260506004031 | 16 | 237 | 0.0 | 0.0 | 0.00 | 0.00 | 0.00 | 74 | 1013.4 |
| 20260506003527 | 16 | 251 | 1.6 | 3.2 | 0.00 | 0.00 | 0.00 | 74 | 1013.3 |
| 20260506003024 | 16 | 242 | 0.0 | 0.0 | 0.00 | 0.00 | 0.00 | 75 | 1013.5 |
| 20260506002520 | 17 | 275 | 4.8 | 11.3 | 0.00 | 0.00 | 0.00 | 75 | 1013.3 |
| 20260506002015 | 17 | 275 | 3.2 | 8.0 | 0.00 | 0.00 | 0.00 | 75 | 1013.4 |
| 20260506001512 | 16 | 176 | 3.2 | 4.8 | 0.00 | 0.00 | 0.00 | 75 | 1013.4 |
| 20260506001009 | 16 | 209 | 0.0 | 0.0 | 0.00 | 0.00 | 0.00 | 75 | 1013.3 |
| 20260506000507 | 17 | 234 | 0.0 | 1.6 | 0.00 | 0.00 | 0.00 | 74 | 1013.6 |
| 20260506000004 | 17 | 276 | 4.8 | 8.0 | 0.00 | 0.00 | 0.00 | 75 | 1013.3 |
| 20260505235502 | 17 | 276 | 4.8 | 8.0 | 0.00 | 0.00 | 0.00 | 73 | 1013.4 |
| 20260505234958 | 17 | 207 | 4.8 | 12.9 | 0.00 | 0.00 | 0.00 | 74 | 1013.4 |
| 20260505234456 | 18 | 204 | 1.6 | 4.8 | 0.00 | 0.00 | 0.00 | 73 | 1013.1 |
| 20260505233952 | 18 | 283 | 1.6 | 4.8 | 0.00 | 0.00 | 0.00 | 70 | 1013.3 |
| 20260505233450 | 18 | 199 | 0.0 | 0.0 | 0.00 | 0.00 | 0.00 | 69 | 1013.3 |
| 20260505232947 | 18 | 274 | 1.6 | 8.0 | 0.00 | 0.00 | 0.00 | 68 | 1013.2 |
| 20260505232445 | 18 | 251 | 4.8 | 9.7 | 0.00 | 0.00 | 0.00 | 67 | 1013.3 |
| 20260505231942 | 18 | 259 | 4.8 | 8.0 | 0.00 | 0.00 | 0.00 | 68 | 1013.3 |
| 20260505231439 | 19 | 255 | 1.6 | 1.6 | 0.00 | 0.00 | 0.00 | 66 | 1013.1 |
| 20260505230937 | 19 | 270 | 0.0 | 0.0 | 0.00 | 0.00 | 0.00 | 66 | 1013.4 |
| 20260505230435 | 19 | 240 | 0.0 | 1.6 | 0.00 | 0.00 | 0.00 | 64 | 1013.2 |
| 20260505225931 | 18 | 220 | 3.2 | 8.0 | 0.00 | 0.00 | 0.00 | 66 | 1013.1 |
| 20260505225428 | 18 | 224 | 4.8 | 11.3 | 0.00 | 0.00 | 0.00 | 67 | 1013.4 |
| 20260505224924 | 18 | 279 | 8.0 | 12.9 | 0.00 | 0.00 | 0.00 | 67 | 1013.5 |
| 20260505224421 | 18 | 268 | 4.8 | 9.7 | 0.00 | 0.00 | 0.00 | 67 | 1013.3 |
| 20260505223918 | 18 | 246 | 6.4 | 11.3 | 0.00 | 0.00 | 0.00 | 68 | 1013.2 |
| 20260505223415 | 18 | 253 | 6.4 | 9.7 | 0.00 | 0.00 | 0.00 | 68 | 1013.4 |
| 20260505222911 | 18 | 258 | 1.6 | 3.2 | 0.00 | 0.00 | 0.00 | 67 | 1013.6 |
| 20260505222408 | 18 | 261 | 3.2 | 3.2 | 0.00 | 0.00 | 0.00 | 65 | 1013.4 |
| 20260505221904 | 18 | 45 | 0.0 | 0.0 | 0.00 | 0.00 | 0.00 | 65 | 1013.7 |
| 20260505221401 | 18 | 250 | 11.3 | 14.5 | 0.00 | 0.00 | 0.00 | 63 | 1013.5 |
| 20260505220858 | 18 | 271 | 8.0 | 12.9 | 0.00 | 0.00 | 0.00 | 62 | 1013.5 |
| 20260505220355 | 18 | 263 | 3.2 | 8.0 | 0.00 | 0.00 | 0.00 | 63 | 1013.6 |
| 20260505215853 | 18 | 279 | 3.2 | 11.3 | 0.00 | 0.00 | 0.00 | 60 | 1013.8 |
| 20260505215351 | 18 | 263 | 8.0 | 11.3 | 0.00 | 0.00 | 0.00 | 63 | 1014.0 |
| 20260505214849 | 18 | 293 | 1.6 | 3.2 | 0.00 | 0.00 | 0.00 | 62 | 1013.8 |
| 20260505214346 | 18 | 278 | 9.7 | 16.1 | 0.00 | 0.00 | 0.00 | 61 | 1013.7 |
| 20260505213843 | 18 | 190 | 0.0 | 1.6 | 0.00 | 0.00 | 0.00 | 64 | 1013.9 |
| 20260505213341 | 18 | 235 | 4.8 | 8.0 | 0.00 | 0.00 | 0.00 | 64 | 1013.9 |
| 20260505212836 | 18 | 269 | 0.0 | 1.6 | 0.00 | 0.00 | 0.00 | 65 | 1013.9 |
| 20260505212334 | 18 | 248 | 11.3 | 16.1 | 0.00 | 0.00 | 0.00 | 65 | 1013.9 |
| 20260505211829 | 18 | 263 | 6.4 | 11.3 | 0.00 | 0.00 | 0.00 | 65 | 1013.9 |
| 20260505211328 | 18 | 227 | 0.0 | 0.0 | 0.00 | 0.00 | 0.00 | 63 | 1014.1 |
| 20260505210824 | 18 | 250 | 1.6 | 8.0 | 0.00 | 0.00 | 0.00 | 65 | 1014.1 |
| 20260505210321 | 18 | 274 | 4.8 | 9.7 | 0.00 | 0.00 | 0.00 | 63 | 1013.9 |
| 20260505205818 | 18 | 202 | 0.0 | 0.0 | 0.00 | 0.00 | 0.00 | 61 | 1014.0 |
| 20260505205316 | 18 | 250 | 6.4 | 9.7 | 0.00 | 0.00 | 0.00 | 61 | 1013.9 |
| 20260505204812 | 19 | 223 | 6.4 | 11.3 | 0.00 | 0.00 | 0.00 | 60 | 1014.1 |
| 20260505204310 | 20 | 236 | 1.6 | 8.0 | 0.00 | 0.00 | 0.00 | 59 | 1013.9 |
| 20260505203807 | 20 | 269 | 3.2 | 4.8 | 0.00 | 0.00 | 0.00 | 58 | 1013.9 |
| 20260505203304 | 20 | 301 | 8.0 | 14.5 | 0.00 | 0.00 | 0.00 | 58 | 1013.9 |
| 20260505202800 | 20 | 227 | 0.0 | 0.0 | 0.00 | 0.00 | 0.00 | 56 | 1013.8 |
| 20260505202256 | 20 | 221 | 3.2 | 8.0 | 0.00 | 0.00 | 0.00 | 55 | 1013.6 |
| 20260505201753 | 20 | 288 | 11.3 | 14.5 | 0.00 | 0.00 | 0.00 | 55 | 1013.8 |
| 20260505201251 | 20 | 201 | 1.6 | 3.2 | 0.00 | 0.00 | 0.00 | 54 | 1014.0 |
| 20260505200749 | 19 | 234 | 1.6 | 3.2 | 0.00 | 0.00 | 0.00 | 57 | 1013.9 |
| 20260505200246 | 19 | 231 | 0.0 | 1.6 | 0.00 | 0.00 | 0.00 | 57 | 1014.0 |
| 20260505195741 | 20 | 265 | 0.0 | 0.0 | 0.00 | 0.00 | 0.00 | 58 | 1014.1 |
| 20260505195239 | 19 | 233 | 0.0 | 0.0 | 0.00 | 0.00 | 0.00 | 61 | 1013.9 |
| 20260505194736 | 18 | 247 | 0.0 | 1.6 | 0.00 | 0.00 | 0.00 | 60 | 1013.9 |
| 20260505194232 | 18 | 279 | 6.4 | 9.7 | 0.00 | 0.00 | 0.00 | 61 | 1014.1 |
| 20260505193728 | 18 | 255 | 4.8 | 9.7 | 0.00 | 0.00 | 0.00 | 62 | 1014.3 |
| 20260505193225 | 19 | 248 | 1.6 | 3.2 | 0.00 | 0.00 | 0.00 | 59 | 1014.2 |
| 20260505192724 | 19 | 218 | 0.0 | 0.0 | 0.00 | 0.00 | 0.00 | 61 | 1014.1 |
| 20260505192221 | 20 | 165 | 1.6 | 8.0 | 0.00 | 0.00 | 0.00 | 60 | 1014.3 |
| 20260505191719 | 19 | 251 | 1.6 | 4.8 | 0.00 | 0.00 | 0.00 | 61 | 1014.3 |
| 20260505191218 | 19 | 297 | 0.0 | 3.2 | 0.00 | 0.00 | 0.00 | 61 | 1014.4 |
| 20260505190714 | 18 | 212 | 0.0 | 0.0 | 0.00 | 0.00 | 0.00 | 64 | 1014.3 |
| 20260505190213 | 18 | 260 | 9.7 | 17.7 | 0.00 | 0.00 | 0.00 | 62 | 1014.4 |
| 20260505185710 | 18 | 239 | 0.0 | 3.2 | 0.00 | 0.00 | 0.00 | 65 | 1014.2 |
| 20260505185206 | 18 | 278 | 3.2 | 11.3 | 0.00 | 0.00 | 0.00 | 64 | 1014.0 |
| 20260505184702 | 19 | 258 | 3.2 | 11.3 | 0.00 | 0.00 | 0.00 | 61 | 1013.9 |
| 20260505184200 | 19 | 252 | 1.6 | 4.8 | 0.00 | 0.00 | 0.00 | 59 | 1013.9 |
| 20260505183657 | 19 | 250 | 11.3 | 14.5 | 0.00 | 0.00 | 0.00 | 59 | 1013.9 |
| 20260505183155 | 19 | 208 | 0.0 | 1.6 | 0.00 | 0.00 | 0.00 | 59 | 1014.0 |
| 20260505182650 | 18 | 265 | 0.0 | 1.6 | 0.00 | 0.00 | 0.00 | 60 | 1014.0 |
| 20260505182148 | 19 | 270 | 0.0 | 0.0 | 0.00 | 0.00 | 0.00 | 60 | 1013.9 |
| 20260505181644 | 19 | 251 | 0.0 | 0.0 | 0.00 | 0.00 | 0.00 | 61 | 1013.9 |
| 20260505181142 | 18 | 254 | 1.6 | 1.6 | 0.00 | 0.00 | 0.00 | 61 | 1013.9 |
| 20260505180637 | 19 | 163 | 0.0 | 0.0 | 0.00 | 0.00 | 0.00 | 62 | 1014.1 |
| 20260505180135 | 18 | 178 | 1.6 | 8.0 | 0.00 | 0.00 | 0.00 | 63 | 1014.0 |
| 20260505175631 | 18 | 238 | 0.0 | 0.0 | 0.00 | 0.00 | 0.00 | 64 | 1013.8 |
| 20260505175127 | 18 | 280 | 0.0 | 0.0 | 0.00 | 0.00 | 0.00 | 64 | 1013.8 |
| 20260505174624 | 18 | 264 | 0.0 | 0.0 | 0.00 | 0.00 | 0.00 | 64 | 1014.0 |
| 20260505174120 | 18 | 176 | 0.0 | 0.0 | 0.00 | 0.00 | 0.00 | 63 | 1014.0 |
| 20260505173617 | 18 | 202 | 0.0 | 0.0 | 0.00 | 0.00 | 0.00 | 63 | 1013.8 |
| 20260505173114 | 18 | 247 | 3.2 | 3.2 | 0.00 | 0.00 | 0.00 | 63 | 1014.1 |
| 20260505172612 | 17 | 133 | 0.0 | 0.0 | 0.00 | 0.00 | 0.00 | 65 | 1013.9 |
| 20260505172108 | 17 | 265 | 0.0 | 0.0 | 0.00 | 0.00 | 0.00 | 66 | 1013.8 |
| 20260505171602 | 17 | 210 | 0.0 | 0.0 | 0.00 | 0.00 | 0.00 | 64 | 1013.9 |
| 20260505171100 | 17 | 190 | 0.0 | 0.0 | 0.00 | 0.00 | 0.00 | 67 | 1013.9 |
| 20260505170556 | 17 | 240 | 0.0 | 0.0 | 0.00 | 0.00 | 0.00 | 67 | 1013.8 |
| 20260505170053 | 17 | 173 | 0.0 | 0.0 | 0.00 | 0.00 | 0.00 | 65 | 1013.7 |
| 20260505165548 | 17 | 213 | 0.0 | 0.0 | 0.00 | 0.00 | 0.00 | 65 | 1013.7 |
| 20260505165044 | 17 | 133 | 0.0 | 0.0 | 0.00 | 0.00 | 0.00 | 68 | 1013.8 |
| 20260505164540 | 17 | 256 | 0.0 | 1.6 | 0.00 | 0.00 | 0.00 | 67 | 1013.8 |
| 20260505164038 | 17 | 84 | 0.0 | 0.0 | 0.00 | 0.00 | 0.00 | 68 | 1013.7 |
| 20260505163531 | 17 | 164 | 0.0 | 0.0 | 0.00 | 0.00 | 0.00 | 69 | 1013.8 |
| 20260505163027 | 17 | 120 | 0.0 | 0.0 | 0.00 | 0.00 | 0.00 | 71 | 1013.7 |
| 20260505162520 | 16 | 162 | 0.0 | 0.0 | 0.00 | 0.00 | 0.00 | 73 | 1013.5 |
| 20260505162017 | 16 | 180 | 0.0 | 0.0 | 0.00 | 0.00 | 0.00 | 74 | 1013.6 |
| 20260505161514 | 16 | 150 | 0.0 | 0.0 | 0.00 | 0.00 | 0.00 | 75 | 1013.5 |
| 20260505161012 | 16 | 180 | 0.0 | 0.0 | 0.00 | 0.00 | 0.00 | 76 | 1013.6 |
| 20260505160510 | 15 | 250 | 0.0 | 0.0 | 0.00 | 0.00 | 0.00 | 78 | 1013.5 |
| 20260505152945 | 15 | 172 | 0.0 | 0.0 | 0.00 | 0.00 | 0.00 | 83 | 1013.1 |
| 20260505152443 | 15 | 166 | 0.0 | 0.0 | 0.00 | 0.00 | 0.00 | 83 | 1013.3 |
| 20260505151937 | 15 | 222 | 0.0 | 0.0 | 0.00 | 0.00 | 0.00 | 83 | 1013.4 |
| 20260505151433 | 15 | 115 | 0.0 | 0.0 | 0.00 | 0.00 | 0.00 | 84 | 1013.1 |
| 20260505150931 | 15 | 174 | 0.0 | 0.0 | 0.00 | 0.00 | 0.00 | 84 | 1013.3 |
| 20260505150428 | 14 | 148 | 0.0 | 0.0 | 0.00 | 0.00 | 0.00 | 85 | 1013.3 |
| 20260505140358 | 11 | 116 | 0.0 | 0.0 | 0.00 | 0.00 | 0.00 | 92 | 1013.2 |
| 20260505124811 | 11 | 130 | 0.0 | 0.0 | 0.00 | 0.00 | 0.00 | 93 | 1012.7 |
| 20260505124308 | 11 | 124 | 0.0 | 0.0 | 0.00 | 0.00 | 0.00 | 93 | 1012.9 |
| 20260505123804 | 11 | 129 | 0.0 | 0.0 | 0.00 | 0.00 | 0.00 | 93 | 1012.8 |
| 20260505123301 | 11 | 128 | 0.0 | 0.0 | 0.00 | 0.00 | 0.00 | 94 | 1012.8 |
| 20260505122757 | 11 | 132 | 0.0 | 0.0 | 0.00 | 0.00 | 0.00 | 94 | 1012.9 |
| 20260505122255 | 11 | 99 | 0.0 | 0.0 | 0.00 | 0.00 | 0.00 | 94 | 1012.9 |
| 20260505121751 | 11 | 133 | 0.0 | 0.0 | 0.00 | 0.00 | 0.00 | 94 | 1013.1 |
| 20260505121248 | 11 | 121 | 0.0 | 0.0 | 0.00 | 0.00 | 0.00 | 94 | 1012.8 |
| 20260505120744 | 11 | 109 | 0.0 | 0.0 | 0.00 | 0.00 | 0.00 | 94 | 1012.8 |
| 20260505120240 | 11 | 126 | 0.0 | 0.0 | 0.00 | 0.00 | 0.00 | 94 | 1012.8 |
| 20260505115739 | 12 | 129 | 0.0 | 0.0 | 0.00 | 0.00 | 0.00 | 94 | 1012.8 |
| 20260505115237 | 11 | 130 | 0.0 | 0.0 | 0.00 | 0.00 | 0.00 | 94 | 1013.0 |
| 20260505114734 | 11 | 154 | 0.0 | 0.0 | 0.00 | 0.00 | 0.00 | 94 | 1012.9 |
| 20260505114230 | 11 | 156 | 0.0 | 0.0 | 0.00 | 0.00 | 0.00 | 94 | 1013.0 |
| 20260505113727 | 11 | 156 | 0.0 | 0.0 | 0.00 | 0.00 | 0.00 | 94 | 1013.0 |
| 20260505113223 | 11 | 156 | 0.0 | 0.0 | 0.00 | 0.00 | 0.00 | 94 | 1013.0 |
| 20260505112719 | 11 | 156 | 0.0 | 0.0 | 0.00 | 0.00 | 0.00 | 94 | 1012.8 |
| 20260505112218 | 11 | 157 | 0.0 | 0.0 | 0.00 | 0.00 | 0.00 | 94 | 1012.9 |
| 20260505111717 | 11 | 149 | 0.0 | 0.0 | 0.00 | 0.00 | 0.00 | 93 | 1013.0 |
| 20260505111214 | 11 | 149 | 0.0 | 0.0 | 0.00 | 0.00 | 0.00 | 93 | 1013.0 |
| 20260505110709 | 11 | 150 | 0.0 | 0.0 | 0.00 | 0.00 | 0.00 | 93 | 1012.9 |
| 20260505110207 | 11 | 149 | 0.0 | 0.0 | 0.00 | 0.00 | 0.00 | 92 | 1012.8 |